KI5NYZ Weather Reports


Display with metric or nautical units.
time (UTC)temp
F
wind
direction
speed
MPH
gust
MPH
rain 1hr
in
rain 24hr
in
rain mn
in
humidity
%
barometer
mb
20260507115521 48 96 2.0 5.0 0.00 0.37 0.00 63 1019.9
20260507114541 49 95 3.0 7.0 0.00 0.37 0.00 61 1019.9
20260507113522 49 95 4.0 8.0 0.00 0.37 0.00 60 1019.9
20260507112524 50 92 3.0 6.0 0.00 0.37 0.00 60 1019.9
20260507111521 50 89 4.0 6.0 0.00 0.37 0.00 59 1019.9
20260507110521 50 92 4.0 7.0 0.00 0.37 0.00 59 1020.0
20260507105522 50 85 5.0 8.0 0.00 0.37 0.00 58 1019.9
20260507104519 50 81 3.0 5.0 0.00 0.37 0.00 59 1019.9
20260507103519 50 75 4.0 6.0 0.00 0.37 0.00 59 1019.9
20260507102520 51 76 3.0 6.0 0.00 0.37 0.00 60 1020.0
20260507101518 51 77 4.0 7.0 0.00 0.37 0.00 61 1019.9
20260507100519 50 75 4.0 8.0 0.00 0.37 0.00 62 1019.9
20260507095519 49 62 3.0 6.0 0.00 0.37 0.00 67 1019.9
20260507094521 49 59 2.0 3.0 0.00 0.37 0.00 69 1019.8
20260507093520 50 63 2.0 4.0 0.00 0.37 0.00 69 1019.8
20260507092519 50 63 1.0 3.0 0.00 0.37 0.00 69 1019.7
20260507091520 51 71 1.0 3.0 0.00 0.37 0.00 68 1019.6
20260507090521 51 75 3.0 4.0 0.00 0.37 0.00 67 1019.6
20260507085520 51 76 3.0 5.0 0.00 0.37 0.00 67 1019.6
20260507084520 51 72 2.0 4.0 0.00 0.37 0.00 67 1019.6
20260507083520 51 76 2.0 4.0 0.00 0.37 0.00 67 1019.4
20260507082520 52 72 2.0 4.0 0.00 0.37 0.00 66 1019.3
20260507081540 52 75 2.0 5.0 0.00 0.37 0.00 64 1019.2
20260507080522 52 75 2.0 4.0 0.00 0.37 0.00 64 1019.2
20260507075541 53 68 3.0 5.0 0.00 0.37 0.00 63 1019.3
20260507074521 53 66 3.0 6.0 0.00 0.37 0.00 62 1019.2
20260507073542 53 65 4.0 6.0 0.00 0.37 0.00 62 1019.2
20260507072523 54 72 3.0 4.0 0.00 0.37 0.00 62 1018.9
20260507071521 54 89 2.0 4.0 0.00 0.37 0.00 61 1018.7
20260507070519 54 68 2.0 4.0 0.00 0.37 0.00 60 1018.9
20260507065521 55 79 2.0 4.0 0.00 0.37 0.00 59 1018.8
20260507064519 55 84 4.0 7.0 0.00 0.37 0.00 58 1018.6
20260507063522 56 82 3.0 5.0 0.00 0.37 0.00 57 1018.7
20260507062521 56 71 3.0 6.0 0.00 0.37 0.00 56 1018.8
20260507061520 55 65 3.0 5.0 0.00 0.37 0.00 57 1018.6
20260507060521 55 49 3.0 5.0 0.00 0.37 0.00 59 1018.2
20260507055520 56 100 1.0 3.0 0.00 0.37 0.00 58 1017.6
20260507054520 56 105 1.0 3.0 0.00 0.37 0.00 57 1017.3
20260507053520 57 115 2.0 3.0 0.00 0.37 0.00 56 1017.1
20260507052521 58 122 2.0 4.0 0.00 0.37 0.00 54 1017.0
20260507051530 59 127 3.0 5.0 0.02 0.37 0.00 53 1016.7
20260507050543 60 124 3.0 4.0 0.02 0.37 0.00 52 1016.6
20260507045523 60 128 2.0 5.0 0.03 0.37 0.37 51 1016.4
20260507044521 60 165 1.0 5.0 0.07 0.37 0.37 50 1016.1
20260507043521 61 120 3.0 5.0 0.09 0.37 0.37 49 1016.2
20260507042521 61 117 4.0 7.0 0.12 0.37 0.37 48 1015.9
20260507041521 62 119 3.0 6.0 0.17 0.36 0.36 47 1015.9
20260507040521 62 117 4.0 6.0 0.21 0.36 0.36 46 1015.6
20260507035538 63 89 5.0 8.0 0.25 0.35 0.35 45 1015.4
20260507034519 63 61 4.0 8.0 0.24 0.31 0.31 44 1015.2
20260507033540 64 57 5.0 9.0 0.22 0.28 0.28 44 1014.9
20260507032519 64 148 7.0 11.0 0.18 0.25 0.25 43 1014.7
20260507031522 65 144 7.0 9.0 0.13 0.19 0.19 42 1014.8
20260507030520 66 116 6.0 10.0 0.09 0.15 0.15 41 1014.6
20260507025519 66 118 5.0 12.0 0.04 0.10 0.10 41 1014.5
20260507024520 66 119 3.0 7.0 0.00 0.06 0.06 41 1014.3
20260507023519 66 121 3.0 5.0 0.00 0.06 0.06 41 1014.0
20260507022540 66 120 2.0 4.0 0.00 0.06 0.06 41 1013.8
20260507021523 67 191 0.0 2.0 0.00 0.06 0.06 40 1013.6
20260507020600 68 180 0.0 2.0 0.00 0.06 0.06 39 1013.4
20260507015522 68 185 0.0 4.0 0.00 0.06 0.06 39 1013.3
20260507014520 69 178 0.0 3.0 0.00 0.06 0.06 38 1013.2
20260507013520 71 154 0.0 4.0 0.00 0.06 0.06 36 1013.1
20260507012522 72 158 1.0 4.0 0.00 0.06 0.06 34 1012.9
20260507011522 73 178 3.0 7.0 0.00 0.06 0.06 33 1012.8
20260507010521 74 176 3.0 8.0 0.00 0.06 0.06 32 1012.7
20260507005521 74 154 1.0 6.0 0.00 0.06 0.06 31 1012.6
20260507004521 75 153 2.0 6.0 0.00 0.06 0.06 30 1012.5
20260507003522 75 105 1.0 4.0 0.00 0.06 0.06 30 1012.5
20260507002523 76 163 2.0 6.0 0.00 0.06 0.06 29 1012.4
20260507001539 76 168 2.0 8.0 0.00 0.06 0.06 29 1012.4
20260507000521 76 160 2.0 7.0 0.00 0.06 0.06 29 1012.3
20260506235520 77 137 1.0 5.0 0.00 0.06 0.06 28 1012.3
20260506234519 76 179 2.0 7.0 0.00 0.06 0.06 28 1012.4
20260506233540 76 107 2.0 5.0 0.00 0.06 0.06 27 1012.4
20260506232520 76 158 1.0 5.0 0.00 0.07 0.06 28 1012.3
20260506231519 76 184 4.0 9.0 0.00 0.07 0.06 27 1012.3
20260506230521 77 97 2.0 4.0 0.00 0.08 0.06 28 1012.2
20260506225520 77 143 0.0 3.0 0.00 0.13 0.06 27 1012.2
20260506224523 76 100 2.0 4.0 0.00 0.14 0.06 28 1012.3
20260506223520 75 99 2.0 5.0 0.00 0.15 0.06 28 1012.4
20260506222521 75 22 2.0 11.0 0.00 0.15 0.06 29 1012.5
20260506221523 75 326 3.0 8.0 0.00 0.16 0.06 29 1012.6
20260506220522 75 103 2.0 4.0 0.00 0.16 0.06 29 1012.7
20260506215521 75 159 3.0 11.0 0.00 0.16 0.06 29 1012.8
20260506214602 75 173 1.0 5.0 0.00 0.16 0.06 29 1012.9
20260506213522 74 116 2.0 5.0 0.00 0.16 0.06 30 1013.0
20260506212546 73 50 3.0 10.0 0.00 0.16 0.06 31 1013.2
20260506211519 73 122 2.0 7.0 0.00 0.16 0.06 31 1013.4
20260506210518 74 122 2.0 7.0 0.00 0.16 0.06 30 1013.5
20260506205520 73 96 1.0 5.0 0.00 0.16 0.06 32 1013.7
20260506204519 73 108 2.0 8.0 0.00 0.16 0.06 31 1013.8
20260506203521 72 100 2.0 7.0 0.00 0.16 0.06 33 1013.9
20260506202519 71 114 2.0 9.0 0.00 0.16 0.06 34 1013.9
20260506201523 71 74 3.0 10.0 0.00 0.16 0.06 36 1014.1
20260506200523 70 106 1.0 5.0 0.00 0.16 0.06 36 1014.2
20260506195541 70 93 2.0 7.0 0.00 0.16 0.06 37 1014.2
20260506194542 69 157 2.0 8.0 0.00 0.16 0.06 38 1014.4
20260506193542 68 184 2.0 7.0 0.00 0.16 0.06 39 1014.5
20260506192521 67 118 2.0 8.0 0.00 0.16 0.06 40 1014.6
20260506191520 67 77 3.0 7.0 0.00 0.16 0.06 41 1014.6
20260506190520 65 79 2.0 4.0 0.00 0.16 0.06 42 1014.7
20260506185524 65 32 5.0 9.0 0.00 0.16 0.06 45 1014.7
20260506184521 64 104 1.0 4.0 0.00 0.16 0.06 45 1014.8
20260506183521 63 97 3.0 7.0 0.00 0.16 0.06 46 1014.8
20260506182521 62 100 2.0 6.0 0.00 0.16 0.06 47 1014.9
20260506181541 62 92 2.0 7.0 0.00 0.16 0.06 48 1015.2
20260506180521 61 106 2.0 5.0 0.00 0.16 0.06 50 1015.2
20260506175538 60 82 2.0 6.0 0.00 0.16 0.06 52 1015.4
20260506174519 59 116 2.0 7.0 0.00 0.16 0.06 53 1015.6
20260506173540 59 106 4.0 7.0 0.00 0.16 0.06 54 1015.8
20260506172519 58 97 3.0 8.0 0.00 0.16 0.06 55 1015.8
20260506171519 57 71 3.0 5.0 0.00 0.16 0.06 57 1015.8
20260506170520 57 104 2.0 7.0 0.01 0.16 0.06 56 1015.8
20260506165520 57 98 3.0 8.0 0.01 0.16 0.06 58 1015.8
20260506164522 56 99 4.0 9.0 0.01 0.16 0.06 59 1015.8
20260506163520 55 114 3.0 6.0 0.03 0.16 0.06 60 1015.7
20260506162520 55 109 3.0 8.0 0.04 0.16 0.06 62 1015.7
20260506161540 54 106 4.0 11.0 0.05 0.16 0.06 63 1015.7
20260506160601 54 93 4.0 9.0 0.04 0.15 0.06 63 1015.7
20260506155520 53 93 4.0 8.0 0.04 0.15 0.05 64 1015.6
20260506154521 53 108 5.0 8.0 0.04 0.15 0.05 65 1015.7
20260506153521 52 100 4.0 8.0 0.02 0.13 0.03 67 1015.7
20260506152521 52 97 4.0 7.0 0.01 0.11 0.02 65 1015.6
20260506151526 52 91 4.0 8.0 0.00 0.11 0.01 66 1015.5
20260506150522 51 88 4.0 7.0 0.01 0.11 0.01 68 1015.5
20260506145521 51 86 4.0 6.0 0.01 0.11 0.01 68 1015.6
20260506144523 50 83 4.0 6.0 0.00 0.11 0.01 69 1015.6
20260506143559 50 87 5.0 8.0 0.00 0.11 0.01 70 1015.5
20260506142519 49 82 4.0 7.0 0.00 0.11 0.01 71 1015.4
20260506141519 49 70 4.0 7.0 0.00 0.11 0.01 72 1015.4
20260506140539 48 64 4.0 7.0 0.00 0.10 0.00 74 1015.3
20260506135541 47 72 4.0 8.0 0.00 0.10 0.00 75 1015.2
20260506134519 47 66 5.0 8.0 0.00 0.10 0.00 76 1014.9
20260506133520 47 55 5.0 9.0 0.00 0.10 0.00 77 1014.8
20260506132540 46 61 5.0 8.0 0.00 0.10 0.00 78 1014.6
20260506131520 46 54 7.0 10.0 0.00 0.10 0.00 78 1014.2
20260506130520 46 61 4.0 9.0 0.00 0.10 0.00 79 1013.9
20260506125540 46 55 6.0 9.0 0.00 0.10 0.00 80 1013.9
20260506124522 45 63 3.0 7.0 0.00 0.10 0.00 80 1013.9
20260506123520 45 73 3.0 6.0 0.00 0.10 0.00 80 1013.7
20260506122521 45 69 3.0 5.0 0.00 0.10 0.00 80 1013.8
20260506121604 45 67 4.0 7.0 0.00 0.10 0.00 80 1013.9
20260506120522 46 69 4.0 9.0 0.00 0.10 0.00 79 1013.9